Weather History for Sable Island, NS

Change the Weather History Date:

Sunday, January 13, 2013

  Actual Average Record
Temperature  
Mean Temperature 39 °F -  
Max Temperature 42 °F 35 °F 51 °F (2012)
Min Temperature 36 °F 25 °F 21 °F (2015)
Degree Days  
Heating Degree Days 26    
Moisture  
Dew Point 33 °F    
Average Humidity 81    
Maximum Humidity 93    
Minimum Humidity 57    
Precipitation  
Precipitation 0.00 in - - ()
Sea Level Pressure  
Sea Level Pressure 30.03 in    
Wind  
Wind Speed 16 mph ()    
Max Wind Speed 22 mph    
Max Gust Speed 30 mph    
Visibility 7.5 miles    
Events      
Averages and records for this station are not official NWS values.
T = Trace of Precipitation, MM = Missing Value Source: Averaged Metar Reports

Daily Weather History Graph

Daily Weather History Graph

Search for Another Location

Airport:

Trip Planner

Search our weather history database for the weather conditions in past years. The results will help you decide how hot, cold, wet, or windy it might be!

Date:

Astronomy

Jan. 13, 2013 Rise Set
Actual Time 7:32 AM AST 4:45 PM AST
Civil Twilight 7:00 AM AST 5:17 PM AST
Nautical Twilight 6:24 AM AST 5:53 PM AST
Astronomical Twilight 5:49 AM AST 6:28 PM AST
Moon 8:22 AM AST (1/13) 7:25 PM AST (1/13)
Length of Visible Light 10h 17m
Length of Day
9h 13m
Waxing Crescent, 5% of the Moon is Illuminated
Jan 13
Waxing Crescent
Jan 18
First Quarter
Jan 27
Full
Feb 3
Last Quarter
Feb 10
New

Hourly Weather History & Observations

Time (AST) Temp. Windchill Dew Point Humidity Pressure Visibility Wind Dir Wind Speed Gust Speed Precip Events Conditions
12:00 AM 37.4 °F 26.6 °F 32.0 °F 81% 29.97 in 7.0 mi North 21.9 mph 29.9 mph N/A   Clear
1:00 AM 35.6 °F 24.2 °F 32.0 °F 87% 29.96 in 7.0 mi North 21.9 mph 27.6 mph N/A   Partly Cloudy
1:15 AM 37.4 °F 26.9 °F 32.0 °F 81% 29.96 in 7.0 mi North 20.7 mph - N/A   Mostly Cloudy
1:20 AM 35.6 °F 24.2 °F 32.0 °F 87% 29.97 in 7.0 mi North 21.9 mph - N/A   Scattered Clouds
1:56 AM 37.4 °F 26.6 °F 32.0 °F 81% 29.97 in 6.0 mi North 21.9 mph - N/A   Mostly Cloudy
2:00 AM 36 °F - 32 °F 81% 29.99 in 6 mi North 20.7 mph - -  
2:00 AM 35.6 °F 24.5 °F 32.0 °F 87% 29.99 in 6.0 mi North 20.7 mph - N/A   Mostly Cloudy
3:00 AM 37.4 °F 27.2 °F 32.0 °F 81% 29.99 in 6.0 mi North 19.6 mph - N/A   Overcast
3:43 AM 37.4 °F 27.8 °F 33.8 °F 87% 29.99 in 6.0 mi North 17.3 mph 27.6 mph N/A   Mostly Cloudy
4:00 AM 37.4 °F 27.5 °F 33.8 °F 87% 30.01 in 6.0 mi North 18.4 mph - N/A   Overcast
4:29 AM 37.4 °F 27.5 °F 32.0 °F 81% 29.99 in 6.0 mi North 18.4 mph - N/A   Overcast
5:00 AM 36 °F - 32 °F 81% 30.01 in 6 mi North 18.4 mph - -   Overcast
5:00 AM 37.4 °F 27.8 °F 32.0 °F 81% 30.01 in 6.0 mi North 17.3 mph 23.0 mph N/A   Overcast
5:19 AM 37.4 °F 28.2 °F 32.0 °F 81% 30.01 in 7.0 mi NNW 16.1 mph 21.9 mph N/A   Overcast
5:39 AM 35.6 °F 24.8 °F 32.0 °F 87% 30.00 in 8.0 mi North 19.6 mph - N/A   Scattered Clouds
6:00 AM 35.6 °F 25.2 °F 32.0 °F 87% 30.01 in 8.0 mi North 18.4 mph 24.2 mph N/A   Partly Cloudy
6:08 AM 35.6 °F 24.5 °F 32.0 °F 87% 30.00 in 8.0 mi North 20.7 mph - N/A   Mostly Cloudy
6:25 AM 35.6 °F 24.8 °F 32.0 °F 87% 30.00 in 8.0 mi North 19.6 mph - N/A   Scattered Clouds
7:00 AM 37.4 °F 26.6 °F 32.0 °F 81% 30.03 in 7.0 mi NNW 21.9 mph 27.6 mph N/A   Clear
8:00 AM 37 °F - 32 °F 75% 30.04 in 9 mi NNW 15.0 mph - -  
8:00 AM 37.4 °F 28.2 °F 32.0 °F 81% 30.04 in 9.0 mi NNW 16.1 mph - N/A   Clear
9:00 AM 39.2 °F 31.2 °F 32.0 °F 75% 30.04 in 9.0 mi North 13.8 mph - N/A   Clear
10:00 AM 39.2 °F 31.2 °F 33.8 °F 81% 30.06 in 9.0 mi North 13.8 mph - N/A   Clear
11:00 AM 41 °F - 31 °F 57% 30.05 in 9 mi North 12.7 mph - -  
11:00 AM 41.0 °F 33.5 °F 32.0 °F 70% 30.05 in 9.0 mi North 13.8 mph - N/A   Clear
12:00 PM 41.0 °F 34.3 °F 32.0 °F 70% 30.03 in 9.0 mi North 11.5 mph - N/A   Clear
1:00 PM 41.0 °F 33.1 °F 32.0 °F 70% 30.03 in 9.0 mi NNW 15.0 mph - N/A   Clear
2:00 PM 40 °F - 33 °F 66% 30.02 in 9 mi NNW 10.4 mph - -  
2:00 PM 41.0 °F 34.7 °F 32.0 °F 70% 30.02 in 9.0 mi NNW 10.4 mph - N/A   Clear
3:00 PM 39.2 °F 31.6 °F 32.0 °F 75% 30.04 in 8.0 mi NNW 12.7 mph - N/A   Clear
4:00 PM 39.2 °F 31.2 °F 33.8 °F 81% 30.05 in 9.0 mi NW 13.8 mph - N/A   Clear
5:00 PM 38 °F - 33 °F 77% 30.09 in 9 mi NW 16.1 mph - -  
6:00 PM 37.4 °F 28.9 °F 33.8 °F 87% 30.10 in 9.0 mi NW 13.8 mph - N/A   Clear
7:00 PM 37.4 °F 30.8 °F 33.8 °F 87% 30.08 in 9.0 mi NW 9.2 mph - N/A   Clear
8:00 PM 37 °F - 34 °F 84% 30.06 in 7 mi NW 5.8 mph - -  
8:00 PM 37.4 °F 32.8 °F 33.8 °F 87% 30.06 in 7.0 mi NW 5.8 mph - N/A   Clear
9:00 PM 39.2 °F 34.2 °F 35.6 °F 87% 30.06 in 7.0 mi NW 6.9 mph - N/A   Clear
9:53 PM 39.2 °F 33.6 °F 35.6 °F 87% 30.06 in 7.0 mi NW 8.1 mph - N/A   Mostly Cloudy
10:00 PM 39.2 °F 34.2 °F 35.6 °F 87% 30.07 in 8.0 mi NW 6.9 mph - N/A   Overcast
11:00 PM 39 °F - 37 °F 88% 30.08 in 6 mi WNW 10.4 mph - -   Overcast
11:00 PM 39.2 °F 32.0 °F 37.4 °F 93% 30.08 in 6.0 mi NW 11.5 mph - N/A   Overcast
11:17 PM 39.2 °F 35.0 °F 35.6 °F 87% 30.07 in 6.0 mi WNW 5.8 mph - N/A   Scattered Clouds
11:36 PM 39.2 °F 35.9 °F 35.6 °F 87% 30.07 in 6.0 mi WNW 4.6 mph - N/A   Mostly Cloudy